Theta_e
312 312 315 315 314 317 317 317 314 312 311 313 314 314 312 307 307 312 314 311 314 313 313 313 315 321 324 323 324 321 325 324 326 328 329 325 324 322 322 327 329 332 329 330 336
313 312 313 314 315 313 314 317 317 315 312 310 310 313 313 309 311 315 306 306 308 318 322 322 320 324 322 324 323 324 322 323 320 326 330 327 324 324 324 325 329 332 334 333 335
310 311 311 311 313 315 314 312 315 318 316 312 311 311 314 309 313 308 303 302 303 312 319 324 325 324 325 323 324 325 325 323 325 326 324 327 326 326 322 324 324 327 333 332 333
309 310 311 311 311 312 314 314 312 314 318 315 312 312 314 311 304 316 321 314 306 310 320 323 324 325 324 323 321 327 325 325 325 323 324 325 326 325 325 321 322 320 329 331 330
309 309 309 310 310 311 311 313 313 313 314 318 314 313 313 312 312 317 320 320 315 320 321 320 323 322 324 321 320 320 321 322 321 321 321 321 322 325 325 322 321 327 332 331 331
307 307 307 307 308 309 309 309 312 312 312 315 316 313 313 313 310 308 308 318 314 317 321 320 320 320 321 321 315 315 318 319 320 321 321 322 321 323 323 321 322 329 330 329 330
306 306 306 306 307 307 308 308 310 312 312 312 317 314 315 313 311 308 307 316 317 313 319 320 321 320 320 321 317 319 321 318 318 319 321 320 321 322 320 321 321 321 323 328 329
304 304 304 305 306 308 307 307 308 309 312 312 315 316 316 313 312 310 308 309 317 316 318 319 319 319 320 319 320 320 319 321 318 318 319 320 320 319 317 318 319 318 317 317 317
304 304 303 303 303 305 307 307 306 308 310 312 313 316 316 313 313 313 311 310 316 321 320 318 318 320 320 321 321 319 318 319 318 317 320 320 320 317 316 316 316 315 315 314 313
304 303 303 303 303 304 304 307 305 307 308 312 313 316 313 314 312 312 313 311 321 321 321 320 318 319 318 322 318 321 320 318 316 316 318 319 319 317 314 314 314 315 314 313 313
303 302 303 303 303 303 304 305 306 307 308 312 312 314 312 313 313 311 311 310 314 320 320 320 319 318 319 320 316 317 318 318 317 316 318 317 317 316 314 313 312 312 313 313 313
303 303 302 302 305 303 303 305 304 307 310 309 311 312 313 312 313 311 310 309 315 319 319 321 319 314 314 319 320 316 318 317 316 316 317 316 317 314 313 314 312 311 311 312 313
302 302 302 301 302 303 303 303 304 305 308 309 310 312 313 312 314 312 309 310 314 318 319 316 312 314 315 319 322 322 317 315 316 317 316 316 317 315 313 312 312 312 311 312 312
300 300 302 301 302 302 302 301 303 304 308 309 311 311 312 313 314 312 310 310 316 317 316 317 314 315 316 317 319 320 319 315 318 318 317 316 313 310 312 314 314 313 311 311 311
300 300 302 302 302 302 302 301 301 303 307 305 307 309 309 314 314 313 309 310 316 315 316 315 317 316 318 317 318 316 316 318 316 318 317 316 318 313 314 314 314 312 310 310 309
299 300 302 302 301 301 301 301 302 303 306 306 308 310 311 311 313 312 312 309 312 316 315 312 313 315 316 316 317 314 315 317 317 318 322 315 318 313 313 314 314 312 311 310 310
299 300 301 301 302 300 301 302 304 305 305 308 310 311 310 312 313 314 314 313 316 317 319 315 314 314 314 316 316 316 316 317 323 323 317 312 317 315 310 310 310 309 308 307 307
299 300 301 301 301 300 301 302 304 301 302 306 308 310 311 309 312 313 315 314 313 316 316 318 318 314 313 316 318 319 317 313 312 315 316 313 318 315 312 311 310 309 309 309 308
299 300 300 300 300 300 301 302 302 303 301 307 308 310 311 309 308 312 313 313 314 314 316 317 315 311 312 313 315 318 320 313 312 307 308 312 311 313 312 311 310 311 308 307 308
298 300 300 300 299 300 301 302 301 302 304 303 307 308 311 310 310 311 312 312 313 312 310 312 315 310 313 313 313 315 313 319 317 315 316 314 314 313 314 312 312 313 310 306 304
299 299 299 299 299 300 300 300 300 300 303 305 306 307 306 309 310 310 311 311 311 312 312 311 311 310 312 314 317 316 316 315 314 316 317 312 312 308 311 310 312 310 306 305 303
298 297 299 299 300 299 300 299 299 298 300 303 302 304 308 307 309 310 311 309 310 310 314 313 313 315 313 311 312 314 315 315 316 310 313 311 311 310 308 307 308 307 306 306 305
297 296 298 298 300 299 296 294 298 299 298 301 303 303 303 308 309 309 308 308 308 309 311 312 314 314 314 312 312 315 314 313 314 310 315 317 314 308 308 308 308 307 306 307 308
296 297 297 298 298 296 291 292 297 299 298 299 302 301 302 302 306 308 309 308 308 309 311 311 312 314 312 312 312 315 314 314 314 316 315 313 311 311 309 310 309 307 306 306 307
295 291 292 298 298 296 294 292 297 297 300 300 301 302 303 303 307 308 308 308 308 310 311 312 313 312 312 309 310 312 313 314 315 314 314 312 311 309 309 309 308 308 307 306 305
295 293 297 289 297 296 294 295 294 296 301 302 302 302 303 302 306 308 309 309 310 310 311 311 312 312 312 310 309 312 312 312 313 314 314 312 310 308 307 307 306 305 304 304 303
292 293 294 298 296 297 296 296 296 297 298 300 301 302 303 303 301 305 306 308 307 309 312 312 313 314 314 311 309 312 311 311 311 312 313 315 312 307 307 306 306 304 303 302 300
Wind_Speed
21 22 21 20 20 18 21 19 18 16 14 13 12 10 10 10 12 11 12 12 8 12 15 14 11 10 3 4 3 3 3 3 3 2 3 5 5 4 1 4 2 1 3 2 16
18 20 21 21 20 21 18 19 21 19 16 14 12 11 9 8 8 14 19 14 16 7 5 3 2 5 3 2 4 4 3 6 3 1 1 5 2 4 2 1 1 1 1 2 24
19 20 20 20 22 19 21 20 17 21 18 16 12 11 7 3 4 10 13 23 23 16 10 1 1 1 1 1 3 3 6 4 3 2 2 3 5 1 1 2 3 4 3 6 13
22 20 19 19 19 20 20 21 20 17 21 18 15 12 8 5 7 1 4 6 19 18 13 5 2 3 4 5 4 3 6 4 3 1 3 3 4 7 3 5 2 4 5 8 9
23 23 20 20 19 18 19 19 20 20 18 21 17 13 9 3 8 2 5 7 11 20 18 5 5 5 6 4 1 3 3 4 4 4 5 5 5 6 5 9 2 3 8 9 9
21 23 24 21 20 19 18 18 19 21 20 19 20 17 8 13 13 22 18 10 14 26 17 14 6 4 4 4 6 2 3 3 3 5 3 4 5 2 5 6 3 4 7 7 9
23 25 25 23 21 21 19 17 17 18 19 19 22 21 16 15 12 5 13 6 10 29 11 18 9 3 4 2 6 2 3 4 4 4 5 3 7 16 6 3 8 5 7 8 13
27 26 26 25 22 20 21 19 18 17 20 19 18 24 10 19 35 17 5 11 7 19 18 19 10 1 2 2 4 4 0 1 4 8 6 8 12 6 7 5 9 11 8 9 9
27 27 25 25 25 23 19 19 18 16 17 17 10 13 8 18 19 28 31 6 8 11 13 9 6 3 0 4 2 2 3 6 7 7 5 9 6 6 4 6 9 8 10 7 6
27 27 28 26 24 23 22 18 15 15 15 12 13 6 6 9 13 17 25 21 5 8 4 4 4 4 7 9 10 7 6 6 7 5 8 9 11 10 8 6 9 9 9 8 8
26 29 29 28 25 24 21 12 4 4 13 12 3 5 3 15 22 20 19 17 4 6 10 6 7 20 26 17 5 7 5 7 3 4 3 7 14 16 13 6 10 9 8 10 11
28 27 29 29 25 26 24 10 11 1 6 20 14 11 6 11 8 9 23 10 9 14 8 6 22 14 8 10 7 5 8 5 3 4 2 7 16 13 9 15 9 8 9 10 8
28 28 29 29 27 26 27 28 18 18 5 6 21 11 4 8 7 15 20 12 13 16 20 20 10 16 12 13 16 17 14 5 2 0 3 5 15 15 8 7 6 8 9 7 10
30 32 30 28 23 27 24 29 26 13 7 9 14 15 15 4 8 6 28 19 8 25 18 14 18 14 16 17 17 20 15 5 6 3 6 6 11 8 4 9 7 9 7 8 10
32 32 29 31 14 23 15 29 23 10 12 10 11 12 12 10 11 17 13 11 20 10 11 14 8 12 16 18 15 9 8 14 6 7 4 7 3 5 3 7 6 9 8 10 10
31 34 30 32 28 25 29 23 20 9 8 7 12 17 17 24 5 11 13 9 3 12 21 23 5 14 11 10 17 7 6 4 4 5 9 21 9 20 8 6 4 7 9 9 11
32 33 33 33 19 26 23 12 9 15 4 6 10 17 29 24 29 10 19 19 16 9 14 20 7 2 7 8 6 6 8 4 7 9 15 9 8 21 3 3 5 10 11 11 9
31 34 35 35 32 29 24 9 16 15 13 3 9 19 30 25 20 28 15 19 24 16 8 15 13 15 6 9 8 20 14 5 9 6 8 5 10 14 1 9 12 9 11 7 9
26 32 31 33 35 33 11 14 9 3 6 8 7 15 24 25 11 25 22 17 23 17 15 15 16 8 5 6 17 11 17 11 4 2 2 5 7 8 9 8 8 8 7 8 5
29 24 21 30 33 25 11 22 5 3 3 14 16 16 17 27 17 27 27 21 16 24 8 3 7 5 18 7 12 12 9 9 8 8 9 4 4 9 2 7 3 4 5 7 7
15 4 14 32 32 9 13 9 8 4 4 6 8 12 11 15 28 17 22 14 22 20 20 2 2 3 14 16 19 7 9 5 3 7 6 3 8 7 10 8 5 6 7 6 7
4 5 21 38 12 6 10 7 10 6 3 3 4 7 10 13 20 24 25 27 25 21 26 19 3 5 17 17 22 22 23 23 8 10 7 2 10 2 7 6 10 8 7 5 5
5 2 18 27 12 7 5 2 4 4 6 8 8 7 8 4 12 24 19 21 18 27 21 17 8 5 3 2 5 18 19 17 16 2 10 8 7 3 8 6 5 9 7 6 5
3 5 3 7 5 6 6 7 7 6 4 4 5 14 10 18 14 14 18 4 12 26 26 22 20 12 16 11 8 15 21 20 20 13 16 14 16 4 5 8 6 5 6 7 6
3 5 4 5 13 9 8 9 11 5 6 12 4 14 10 10 19 13 15 10 10 19 22 20 21 23 15 7 10 19 24 24 21 25 18 23 18 14 13 10 9 8 6 6 6
6 4 2 2 9 14 13 9 14 12 8 8 11 18 15 17 12 17 13 10 11 14 22 20 10 17 19 12 7 11 19 24 26 25 23 19 14 13 10 7 7 9 8 7 6
4 2 4 8 11 13 13 16 18 7 4 12 20 5 12 21 8 14 11 6 8 5 20 17 13 9 22 21 2 9 21 23 22 29 26 18 27 7 9 8 10 8 8 8 7
Wind_Direction
261 261 263 265 263 259 255 252 253 257 255 250 259 269 281 284 278 281 253 234 228 257 269 282 296 349 354 332 3 113 62 177 228 145 297 347 12 351 306 123 81 359 156 293 167
257 258 258 258 264 260 262 257 252 253 251 249 252 257 277 286 297 268 250 248 235 225 262 289 326 4 3 328 332 97 130 216 222 166 35 328 23 306 358 84 72 313 341 129 165
264 259 256 258 254 260 263 262 263 252 252 249 249 246 255 291 329 252 278 250 238 219 231 196 64 62 187 85 239 186 178 217 256 270 60 331 318 337 128 252 215 223 208 155 169
264 263 261 255 255 255 257 262 261 262 247 244 240 229 232 168 233 19 338 287 228 213 209 179 123 154 192 202 234 196 215 201 210 199 352 316 326 314 205 230 189 273 187 173 180
248 255 257 257 259 255 257 257 257 256 258 244 235 218 192 226 247 226 342 328 201 200 202 164 164 156 183 206 222 219 238 204 259 281 254 283 257 237 261 263 311 79 155 190 200
252 252 255 259 259 261 260 258 255 251 251 250 233 214 202 238 259 247 267 324 189 189 200 182 204 180 186 211 171 231 200 280 305 305 238 236 263 207 255 263 212 146 193 201 215
247 252 254 259 260 260 261 262 258 251 249 248 236 216 224 228 248 302 250 258 208 193 175 200 212 184 164 246 216 265 316 310 219 216 249 175 278 241 186 285 288 231 226 221 225
246 249 253 253 251 254 256 258 259 256 249 242 245 210 238 229 241 245 238 232 250 202 203 204 207 348 198 269 14 154 133 237 266 184 246 135 260 263 244 206 254 268 240 230 240
249 249 245 250 247 246 242 249 253 255 251 244 250 222 235 188 212 231 233 237 223 203 203 195 164 194 180 119 17 332 179 220 291 201 173 194 252 251 239 231 254 256 269 257 249
248 242 248 243 244 242 239 237 240 257 247 241 236 254 212 201 179 202 212 209 178 141 119 145 158 191 188 185 205 187 187 226 209 222 210 229 248 263 266 265 249 252 263 279 271
248 243 236 240 235 236 232 228 206 241 212 221 177 255 147 186 184 191 177 175 189 152 189 189 181 209 205 202 200 162 193 196 221 244 192 237 257 258 271 252 255 248 247 250 259
246 242 237 231 227 224 223 222 206 350 233 223 251 230 248 173 174 182 174 157 184 196 142 180 222 207 148 193 210 198 212 214 270 265 175 293 273 265 259 262 232 224 239 237 243
246 242 236 231 226 220 213 220 233 241 258 210 213 232 182 183 192 186 175 167 187 193 198 203 216 187 181 190 203 222 215 178 170 320 276 21 288 267 244 258 232 228 225 232 232
248 245 233 224 221 215 217 222 224 243 244 222 197 218 208 184 220 179 202 174 177 205 194 222 231 189 187 204 193 221 222 144 173 121 233 147 270 216 227 239 239 229 214 230 240
246 235 228 212 209 194 204 210 210 188 232 192 199 182 185 201 132 198 207 213 195 176 168 212 157 181 202 209 181 223 159 201 184 220 33 243 266 272 221 240 235 249 226 234 247
240 234 222 215 212 216 199 189 181 222 236 189 166 174 170 200 215 158 177 215 156 199 202 216 173 183 198 177 187 130 82 86 148 175 233 236 195 270 225 203 215 248 253 247 244
236 226 215 210 210 197 186 174 212 221 127 186 184 178 186 191 206 200 186 190 187 197 189 212 199 222 145 154 158 170 126 163 210 209 230 186 175 242 263 330 216 258 250 245 258
236 224 215 206 206 187 175 209 224 209 208 194 186 189 193 190 206 200 202 185 214 199 180 187 204 202 182 200 177 196 192 183 205 198 235 149 223 234 142 228 242 253 263 262 256
228 220 205 201 194 185 190 214 222 172 184 191 192 202 197 204 187 199 212 200 189 190 199 199 214 190 186 170 169 188 209 200 98 123 75 211 284 300 258 246 248 266 259 272 298
217 200 193 190 195 185 213 220 197 192 165 216 214 198 200 198 205 192 197 198 196 200 219 222 208 192 184 147 212 179 148 191 207 209 227 244 250 231 246 246 253 267 128 66 68
170 162 191 189 180 200 216 220 202 248 144 191 235 239 227 194 206 202 204 199 197 192 207 153 246 207 157 205 192 168 195 208 187 195 204 231 248 202 223 216 176 166 96 94 91
145 179 172 166 194 196 213 154 178 189 152 171 250 289 216 218 204 207 210 207 191 178 204 203 185 198 209 204 205 202 205 199 200 221 223 205 245 219 232 198 155 137 123 116 91
157 107 178 172 199 182 141 176 159 141 184 175 218 207 322 253 225 207 204 207 182 195 197 189 201 181 165 29 173 213 213 213 219 62 194 209 244 189 134 135 146 147 152 140 111
135 161 178 197 210 156 134 187 190 199 211 181 233 217 244 269 248 211 212 193 189 203 198 189 216 228 225 226 147 196 211 209 208 220 221 220 245 142 153 149 165 164 174 147 149
150 210 201 173 195 177 180 168 191 172 199 203 210 226 211 248 217 217 222 210 186 202 201 203 216 214 227 253 189 195 207 212 209 218 215 229 223 223 190 195 195 198 179 140 141
148 139 116 127 171 177 181 204 193 206 174 200 224 202 203 212 267 200 173 202 202 195 202 203 240 210 231 236 210 216 212 216 216 222 226 238 237 225 201 198 188 178 167 142 116
116 81 117 148 158 176 202 205 210 161 254 240 216 212 196 224 186 286 198 172 137 176 201 200 212 197 226 222 197 238 217 214 217 223 214 218 230 125 196 197 174 156 140 136 114